Regional Weather Roundup
Issued by NWS

Home | Current Version | Previous Version | Graphics & Text | Print | Product List | Glossary On
Versions: 1 2 3 4 5 6 7 8 9 10 11 12 13 14 15 16 17 18 19 20 21 22 23 24 25 26 27 28 29 30 31 32 33 34 35 36 37 38 39 40 41 42 43 44 45 46 47 48 49 50
000
ASUS44 KMEG 131810
RWRTN
TENNESSEE HOURLY STATE WEATHER ROUNDUP
NATIONAL WEATHER SERVICE MEMPHIS TN
1200 PM CST WED DEC 13 2017

TNZ002-004-019-021-049-052-054-088>092-131900-
WEST TENNESSEE

CITY           SKY/WX    TMP DP  RH WIND       PRES   REMARKS
MEMPHIS INTL   SUNNY     52  23  32 SW22      29.89F
NWS MEMPHIS      N/A     50 N/A N/A MISG        N/A
JACKSON        SUNNY     51  20  29 SW16G24   29.86F
DYERSBURG      SUNNY     50  21  32 SW13G23   29.81F
SOMERVILLE     SUNNY     50  21  32 S20G28    29.86F
COVINGTON      SUNNY     52  21  30 SW18G28   29.85F
UNION CITY     SUNNY     48  21  34 S21G29    29.77F
BOLIVAR        SUNNY     50  18  27 S15G26    29.88F
PARIS          SUNNY     48  19  32 SW20G32   29.78F
HUNTINGDON     SUNNY     48  19  32 SW20G28   29.80F
LEXINGTON      SUNNY     48  18  29 S22       29.87F
SELMER         SUNNY     48  18  29 SW14G21   29.88F
SAVANNAH       SUNNY     50  19  29 S18G25    29.89F
$$

TNZ008-025-027-028-033-062-065-066-131900-
NORTH MIDDLE TENNESSEE

CITY           SKY/WX    TMP DP  RH WIND       PRES   REMARKS
NASHVILLE      MOSUNNY   46  14  27 S18       29.86F
PORTLAND       SUNNY     43  12  28 S21       29.80F
CLARKSVILLE    SUNNY     46  15  28 SW21G30   29.79F
SMYRNA         SUNNY     45  14  28 S15G21    29.87F
COOKEVILLE     SUNNY     43  10  26 SW17      29.86F
GALLATIN       SUNNY     45  12  26 S14G22    29.86F
CROSSVILLE     SUNNY     38   6  26 SW8       29.85F WCI  32
$$

TNZ061-075-076-078-094-096-097-131900-
SOUTH MIDDLE TENNESSEE

CITY           SKY/WX    TMP DP  RH WIND       PRES   REMARKS
FAYETTEVILLE   SUNNY     43  12  28 SW16      29.92F
TULLAHOMA      SUNNY     43  10  26 SW9       29.90F
WINCHESTER     SUNNY     45  10  24 SW7       29.93F
MCMINNVILLE    SUNNY     41  10  28 SW12G20   29.89F
COLUMBIA       SUNNY     46  16  29 S24       29.87F
SHELBYVILLE    SUNNY     43  14  31 SW20      29.90F
$$

TNZ017-018-042-046-047-131900-
NORTHEAST TENNESSEE

CITY           SKY/WX    TMP DP  RH WIND       PRES   REMARKS
TRI CITIES     MOSUNNY   34   7  32 SW13      29.87F WCI  25
ELIZABETHTON   SUNNY     36   1  23 SW6G13    29.87F WCI  31
$$

TNZ012-013-036-069-073-074-131900-
CENTRAL EAST TENNESSEE

CITY           SKY/WX    TMP DP  RH WIND       PRES   REMARKS
KNOXVILLE      MOSUNNY   41   9  26 SW17      29.91F
OAK RIDGE      SUNNY     39   9  29 SW7       29.91F WCI  34
DOWNTOWN KNOXV SUNNY     41   9  26 W9        29.91F
GATLINBURG     SUNNY     41   9  26 W8G16     29.89F
MORRISTOWN     SUNNY     37   3  23 SW12      29.87F WCI  30
JACKSBORO      SUNNY     37   9  30 VRB5      29.90F WCI  34
$$

TNZ083-085-099-131900-
SOUTHEAST TENNESSEE

CITY           SKY/WX    TMP DP  RH WIND       PRES   REMARKS
CHATTANOOGA    SUNNY     42   9  25 S8        29.96F
DAYTON         CLEAR     41  14  33 S8G15     29.93F
$$

SKY/WX REPORTED AS FAIR MEANS FEW OR NO CLOUDS BELOW
12 THOUSAND FEET.




USA.gov is the U.S. government's official web portal to all federal, state and local government web resources and services.